Tracking 23726 objects as of 16-Oct-2021
HD Live streaming from Space Station
objects crossing your sky now

ARIANE 44LP DEB

Track ARIANE 44LP DEB now!


NORAD ID: 27049
Int'l Code: 1989-062M
Perigee: 357.4 km
Apogee: 30,703.6 km
Inclination: 8.8 °
Period: 537.6 minutes
Semi major axis: 21901 km
RCS: 0.1884 m2 (medium)
Launch date: August 8, 1989
Source: France (FR)
Launch site: FRENCH GUIANA (FRGUI)

Note: This is SATELLITE DEBRIS
aabbcc
Your satellite tracking list
Your tracking list is empty




NASA's NSSDC Master Catalog

Two Line Element Set (TLE):
1 27049U 89062M   21288.34808304  .00003605  00000-0  38565-2 0  9991
2 27049   8.7603 318.3088 6927877 298.7753   9.3909  2.67850266208525
Source of the keplerian elements: AFSPC